Regional Weather Roundup
Issued by NWS Goodland, KS

Home | Current Version | Previous Version | Text Only | Print | Product List | Glossary Off
Versions: 1 2 3 4 5 6 7 8 9 10 11 12 13 14 15 16 17 18 19 20 21 22 23 24 25 26 27 28 29 30 31 32 33 34 35 36 37 38 39 40 41 42 43 44 45 46 47 48 49 50

000
ASUS43 KGLD 171708
RWRGLD

GOODLAND FORECAST AREA HOURLY WEATHER ROUNDUP
NATIONAL WEATHER SERVICE GOODLAND KS
1100 AM MDT WED SEP 17 2014

...OFFICIAL OBSERVATIONS...

CITY           SKY/WX    TMP DP  RH WIND       PRES   REMARKS
GOODLAND KS    SUNNY     81  54  39 E8        30.00S
HILL CITY KS   SUNNY     74  61  63 SE5       29.95S
IMPERIAL NEB   SUNNY     79  52  38 SE6       29.97F
MCCOOK NEB     SUNNY     68  58  70 CALM      29.96S
AKRON CO       MOSUNNY   76  46  34 W15       30.04S
BURLINGTON CO  SUNNY     86  48  26 S8        30.02S
LIMON CO       SUNNY     83  41  22 NW7       30.10F
$$

...UNOFFICIAL OBSERVATIONS...

CITY           SKY/WX    TMP DP  RH WIND       PRES   REMARKS
COLBY KS       SUNNY     81  63  54 SE6       29.98F
GOVE KS          N/A     79  32  18 MISG        N/A
SHARON SPRINGS   N/A     86  56  36 S6          N/A
WAKEENEY KS      N/A     74  64  71 MISG        N/A
TRENTON NEB      N/A     71  32  23 E7          N/A
YUMA CO          N/A     81  45  27 N9          N/A
$$



USA.gov is the U.S. government's official web portal to all federal, state and local government web resources and services.